Location: Sevilla
(37.3933°N, 5.9839°W)
Time: 13:11:01
(UTC+02:00)

S-56A Canister/Altair - Pass Details

Date: 26 June 2024
Orbit: 638 x 2488 km, 38.9° (Epoch: 14 July)

Event Time Altitude Azimuth Distance (km) Brightness Sun altitude
Rises 03:47:48 0° 288° (WNW) 5,147 11.7 -26.3°
Reaches altitude 10° 03:50:55 10° 284° (WNW) 4,365 11.3 -26.1°
Maximum altitude 04:03:03 56° 211° (SSW) 2,686 9.8 -25.2°
Drops below altitude 10° 04:17:33 10° 139° (SE) 5,122 11.5 -23.9°
Sets 04:21:34 0° 135° (SE) 6,066 11.9 -23.5°
